AirNav   Air Wisconsin Up To $57,000 Bonus
 
 306 users online  

6P7 McVille Airport
Freeport, Pennsylvania, USA

GOING TO FREEPORT?


FAA INFORMATION EFFECTIVE 05 DECEMBER 2019

Location

FAA Identifier: 6P7
Lat/Long: 40-44-04.4250N 079-35-44.3250W
40-44.073750N 079-35.738750W
40.7345625,-79.5956458
(estimated)
Elevation: 1104.5 ft. / 337 m (estimated)
Variation: 10W (2020)
From city: 7 miles NE of FREEPORT, PA
Time zone: UTC -5 (UTC -4 during Daylight Saving Time)
Zip code: 16229

Airport Operations

Airport use: Open to the public
Activation date: 12/2014
Control tower: no
ARTCC: CLEVELAND CENTER
FSS: ALTOONA FLIGHT SERVICE STATION
NOTAMs facility: AOO (NOTAM-D service available)
Attendance: 0800-1700
Wind indicator: lighted
Segmented circle: yes
Lights: ACTIVATE MIRLS RWY 14/32 - 122.8.
Beacon: white-green (lighted land airport)
Operates sunset to sunrise.

Airport Communications

CTAF/UNICOM: 123.0
JOHNSTOWN APPROACH: 121.2
JOHNSTOWN DEPARTURE: 121.2
WX AWOS-3PT at BTP (16 nm W): 121.450 (724-586-6434)
  • APCH/DEP SVC PRVDD BY CLEVELAND ARTCC ON FREQS 124.4/327.1 (ALTOONA RCAG) WHEN JOHNSTOWN (JST) APCH/DEP CLSD.

Nearby radio navigation aids

VOR radial/distance  VOR name  Freq  Var
CIPr200/25.5CLARION VOR/DME112.9006W
EWCr109/28.5ELLWOOD CITY VOR/DME115.8008W
AGCr046/34.1ALLEGHENY VOR/DME110.0009W

Airport Services

Fuel available: 100LL MOGAS
MOGAS IS 89 OCTANE
Parking: tiedowns
Airframe service: MAJOR
Powerplant service: MAJOR

Runway Information

Runway 14/32

Dimensions: 2800 x 60 ft. / 853 x 18 m
Surface: asphalt, in good condition
Runway edge lights: medium intensity
RUNWAY 14  RUNWAY 32
Latitude: 40-44.238000N40-43.909333N
Longitude: 079-35.952000W079-35.526833W
Elevation: 1104.5 ft.1104.5 ft.
Traffic pattern: leftleft
Runway heading: 145 magnetic, 135 true325 magnetic, 315 true
Markings: nonprecision, in good conditionnonprecision, in good condition
Runway end identifier lights: nono
Touchdown point: yes, no lightsyes, no lights
Obstructions: 26 ft. trees, 533 ft. from runway, 234 ft. left of centerline, 12:1 slope to clearnone

Airport Ownership and Management from official FAA records

Ownership: Privately-owned
Owner: THOMAS C & THEODORE J KIJOWSKI
444 FORDCITY RD
FREEPORT, PA 16229
Phone 724-294-2359
Manager: THOMAS C. KIJOWSKI
444 FORDCITY RD
FREEPORT, PA 16229
Phone 724-335-0390
412-418-3703.

Airport Operational Statistics

Aircraft based on the field: 22
Single engine airplanes: 22
    
Aircraft operations: avg 42/week *
64% local general aviation
36% transient general aviation
* for 12-month period ending 17 September 2019

Additional Remarks

FOR CD CTC JOHNSTOWN APCH AT 814-532-5960, WHEN APCH CLSD CTC CLEVELAND ARTCC AT 440-774-0234.

Instrument Procedures

NOTE: All procedures below are presented as PDF files. If you need a reader for these files, you should download the free Adobe Reader.

NOT FOR NAVIGATION. Please procure official charts for flight.
FAA instrument procedures published for use from 05 December 2019 at 0900Z to 02 January 2020 at 0900Z.

 
IAPs - Instrument Approach Procedures
RNAV (GPS) RWY 14   download (167KB)
RNAV (GPS) RWY 32   download (179KB)
NOTE: Special Take-Off Minimums/Departure Procedures apply   download (289KB)

Other nearby airports with instrument procedures:

KBTP - Pittsburgh/Butler Regional Airport (16 nm W)
KIDI - Indiana County Airport (Jimmy Stewart Field) (23 nm E)
KPJC - Zelienople Municipal Airport (26 nm W)
KAGC - Allegheny County Airport (27 nm SW)
KLBE - Arnold Palmer Regional Airport (29 nm S)
 
Loc | Ops | Rwys | IFR | FBO | Links
Com | Nav | Svcs | Stats | Notes
Aerial photo
WARNING: Photo may not be current or correct
Aerial photo of 6P7 (McVille Airport)
Photo taken 22-Nov-2015
looking southwest.

Do you have a better or more recent aerial photo of McVille Airport that you would like to share? If so, please send us your photo.

 
Airport distance calculator
Flying to McVille Airport? Find the distance to fly.

From to 6P7

Sunrise and sunset
Times for 15-Dec-2019
 Local
(UTC-5)
 Zulu
(UTC)
Morning civil twilight07:0512:05
Sunrise07:3612:36
Sunset16:5121:51
Evening civil twilight17:2222:22

Current date and time
Zulu (UTC)  15-Dec-2019 06:52:10
Local (UTC-5)  15-Dec-2019 01:52:10
 
METAR
KBTP 
16nm W 
150637Z AUTO 26011G16KT 3SM UP BR OVC009 02/01 A2967 RMK AO2 RAB10E33UPB33 CIG 007V011 P0000 FZRANO
KIDI 
24nm E 
150635Z AUTO 28013G21KT 4SM BR OVC013 03/02 A2968 RMK A01
KPJC 
26nm W 
150636Z AUTO 00000KT 4SM BR OVC013 02/02 A2968 RMK AO2
KAGC 
27nm SW 
150553Z 26010KT 4SM BR OVC014 03/01 A2967 RMK AO2 SLP060 60000 T00280011 10028 20022 51014
KLBE 
29nm S 
150635Z AUTO 23009KT 6SM -UP OVC015 03/02 A2969 RMK AO2
TAF
KAGC 
27nm SW 
150520Z 1506/1606 26010G20KT P6SM OVC015 TEMPO 1506/1510 5SM -SNRA FM151400 27012G22KT P6SM OVC020 FM152200 26008KT P6SM BKN035
KLBE 
29nm S 
150520Z 1506/1606 26010G20KT P6SM OVC015 TEMPO 1506/1510 5SM -SNRA FM151500 26012G22KT P6SM OVC020 FM152200 26008KT P6SM BKN035
KPIT 
34nm SW 
150520Z 1506/1612 26010G20KT P6SM OVC015 TEMPO 1506/1510 5SM -SNRA FM151400 28012G22KT P6SM OVC020 FM152200 27008KT P6SM BKN035 FM160600 00000KT 5SM -SN BR OVC025 FM160900 10005KT 2SM -SN BR OVC007
NOTAMs
Click for the latest NOTAMs
NOTAMs are issued by the DoD/FAA and will open in a separate window not controlled by AirNav.

 

 
 

FBO, Fuel Providers, and Aircraft Ground Support

  
 Business Name 
 
 Contact 
 
 Services / Description 
 
Fuel Prices
 
Comments
  
McVille Airport 724-294-2359
no information available

If you are affiliated with McVille Airport and would like to show here your services, contact info, web link, logo, and more, click here
100LL Mogas
FS --- $3.95 
SS $4.69 --- 
 Updated 24-Oct-2019
 
   write
FS=Full service
SS=Self service
Update Fuel Prices
 

Would you like to see your business listed on this page?

 If your business provides an interesting product or service to pilots, flight crews, aircraft, or users of the McVille Airport, you should consider listing it here.  To start the listing process, click on the button below
 
Add a business
 

Other Pages about McVille Airport

Update a link
 
Copyright © AirNav, LLC. All rights reserved. Privacy Policy  Contact